This is the latest recevied weather packets stored in our database for station/object KK7RJD. If no packets are shown the sender has not sent any weather packets the latest 10 day(s).
| Time | Temp. | Humidity | Pressure | Rain* | Wind** | Luminosity | Snow |
|---|---|---|---|---|---|---|---|
| 1777073575 | 5° C | 41% | 1011.5 hPa | 0 mm | - | 323 W/m² | - |
| 1777073271 | 5.56° C | 41% | 1011.5 hPa | 0 mm | - | 344 W/m² | - |
| 1777072967 | 5° C | 42% | 1011.6 hPa | 0 mm | - | 366 W/m² | - |
| 1777072663 | 5.56° C | 40% | 1011.5 hPa | 0 mm | - | 381 W/m² | - |
| 1777072362 | 5° C | 42% | 1011.5 hPa | 0 mm | - | 398 W/m² | - |
| 1777072061 | 5.56° C | 40% | 1011.5 hPa | 0 mm | - | 420 W/m² | - |
| 1777071758 | 5.56° C | 40% | 1011.5 hPa | 0 mm | - | 438 W/m² | - |
| 1777071455 | 5° C | 41% | 1011.7 hPa | 0 mm | - | 457 W/m² | - |
| 1777071154 | 5° C | 42% | 1011.5 hPa | 0 mm | - | 477 W/m² | - |
| 1777070850 | 5° C | 42% | 1011.5 hPa | 0 mm | - | 492 W/m² | - |
| 1777070548 | 5.56° C | 41% | 1011.6 hPa | 0 mm | - | 512 W/m² | - |
| 1777070247 | 5° C | 46% | 1011.6 hPa | 0 mm | - | 536 W/m² | - |
| 1777069942 | 5° C | 45% | 1011.5 hPa | 0 mm | - | 572 W/m² | - |
| 1777069641 | 5° C | 47% | 1011.7 hPa | 0 mm | - | 610 W/m² | - |
| 1777069337 | 5° C | 45% | 1011.6 hPa | 0 mm | - | 552 W/m² | - |
| 1777069034 | 4.44° C | 49% | 1011.8 hPa | 0 mm | - | 699 W/m² | - |
| 1777068730 | 5° C | 43% | 1011.6 hPa | 0 mm | - | 168 W/m² | - |
| 1777068425 | 5° C | 46% | 1011.7 hPa | 0 mm | - | 711 W/m² | - |
| 1777068124 | 5° C | 46% | 1011.8 hPa | 0 mm | - | 714 W/m² | - |
| 1777067819 | 3.89° C | 45% | 1011.7 hPa | 0 mm | - | 754 W/m² | - |
| 1777067518 | 4.44° C | 41% | 1011.9 hPa | 0 mm | - | 173 W/m² | - |
| 1777067217 | 5° C | 43% | 1011.7 hPa | 0 mm | - | 117 W/m² | - |
| 1777066913 | 5° C | 41% | 1011.7 hPa | 0 mm | - | 714 W/m² | - |
| 1777066608 | 4.44° C | 46% | 1011.6 hPa | 0 mm | - | 729 W/m² | - |
| 1777066305 | 5° C | 45% | 1011.7 hPa | 0 mm | - | 741 W/m² | - |
* Rain latest hour (hover to see other rain measurements)
** Current wind speed in m/s (hover to see current wind gust speed)